TimeCDT,TemperatureF,Dew PointF,Humidity,Sea Level PressureIn,VisibilityMPH,Wind Direction,Wind SpeedMPH,Gust SpeedMPH,PrecipitationIn,Events,Conditions,WindDirDegrees,DateUTC
12:58 AM,71.1,68.0,90,29.79,10.0,South,15.0,-,0.00,,Overcast,180,2014-04-07 05:58:00
1:58 AM,71.1,68.0,90,29.77,9.0,South,17.3,23.0,0.00,,Overcast,170,2014-04-07 06:58:00
2:58 AM,72.0,69.1,91,29.79,9.0,South,12.7,19.6,N/A,,Overcast,190,2014-04-07 07:58:00
3:58 AM,72.0,69.1,91,29.75,9.0,South,9.2,18.4,0.00,,Overcast,170,2014-04-07 08:58:00
4:58 AM,72.0,69.1,91,29.72,8.0,South,15.0,27.6,N/A,,Overcast,190,2014-04-07 09:58:00
5:58 AM,73.9,70.0,87,29.73,9.0,South,12.7,29.9,N/A,,Overcast,190,2014-04-07 10:58:00
6:58 AM,73.9,70.0,87,29.72,10.0,SSW,16.1,21.9,N/A,,Overcast,200,2014-04-07 11:58:00
7:58 AM,73.9,70.0,87,29.73,10.0,SSW,17.3,28.8,N/A,,Overcast,200,2014-04-07 12:58:00
8:58 AM,73.9,71.1,91,29.76,8.0,SW,18.4,28.8,0.04,Rain,Light Rain,220,2014-04-07 13:58:00
9:07 AM,71.6,66.2,83,29.79,2.5,Variable,4.6,-,0.09,Rain,Heavy Rain,0,2014-04-07 14:07:00
9:11 AM,68.0,66.2,94,29.77,1.8,Variable,4.6,-,0.12,Rain,Heavy Rain,0,2014-04-07 14:11:00
9:30 AM,66.2,64.4,94,29.81,1.8,SW,10.4,21.9,0.48,Rain,Heavy Rain,220,2014-04-07 14:30:00
9:34 AM,66.2,64.4,94,29.80,2.0,SSW,13.8,20.7,0.50,Rain,Heavy Rain,210,2014-04-07 14:34:00
9:56 AM,66.2,64.4,94,29.78,4.0,SW,9.2,-,0.63,Rain,Rain,220,2014-04-07 14:56:00
9:58 AM,66.9,64.9,93,29.77,4.0,SSW,5.8,-,0.63,Rain,Rain,210,2014-04-07 14:58:00
10:58 AM,66.9,64.9,93,29.77,3.0,South,8.1,-,0.17,Rain,Heavy Rain,190,2014-04-07 15:58:00
11:04 AM,66.2,64.4,94,29.78,2.5,South,6.9,-,0.02,Rain,Heavy Rain,190,2014-04-07 16:04:00
11:11 AM,66.2,64.4,94,29.78,3.0,SSW,8.1,-,0.04,Rain,Rain,210,2014-04-07 16:11:00
11:24 AM,66.2,64.4,94,29.77,4.0,South,9.2,-,0.09,Rain,Heavy Rain,190,2014-04-07 16:24:00
11:58 AM,68.0,66.0,93,29.74,8.0,South,6.9,-,0.14,Rain,Light Rain,190,2014-04-07 16:58:00
12:42 PM,69.8,66.2,88,29.73,10.0,South,12.7,19.6,0.00,,Mostly Cloudy,180,2014-04-07 17:42:00
12:50 PM,69.8,66.2,88,29.73,10.0,South,11.5,-,0.00,,Mostly Cloudy,180,2014-04-07 17:50:00
12:54 PM,71.6,66.2,83,29.72,10.0,South,10.4,-,0.00,,Mostly Cloudy,190,2014-04-07 17:54:00
12:58 PM,71.1,68.0,90,29.71,10.0,SSW,9.2,-,0.00,,Mostly Cloudy,210,2014-04-07 17:58:00
1:46 PM,71.6,66.2,83,29.72,10.0,SW,9.2,-,N/A,,Mostly Cloudy,220,2014-04-07 18:46:00
1:58 PM,73.0,68.0,84,29.70,10.0,SW,5.8,-,N/A,,Overcast,220,2014-04-07 18:58:00
2:07 PM,73.4,68.0,83,29.71,10.0,SW,8.1,-,N/A,,Overcast,220,2014-04-07 19:07:00
2:36 PM,73.4,68.0,83,29.70,10.0,SW,9.2,-,N/A,,Overcast,230,2014-04-07 19:36:00
2:40 PM,73.4,68.0,83,29.70,10.0,SW,10.4,-,N/A,,Overcast,220,2014-04-07 19:40:00
2:58 PM,73.9,68.0,82,29.69,10.0,SSW,11.5,-,N/A,,Overcast,210,2014-04-07 19:58:00
3:19 PM,75.2,68.0,78,29.69,10.0,SSW,9.2,-,N/A,,Scattered Clouds,200,2014-04-07 20:19:00
3:57 PM,75.0,66.9,76,29.67,10.0,South,10.4,-,N/A,,Mostly Cloudy,190,2014-04-07 20:57:00
4:12 PM,75.2,66.2,73,29.69,10.0,SW,8.1,-,N/A,,Mostly Cloudy,220,2014-04-07 21:12:00
4:58 PM,75.0,66.9,76,29.70,10.0,SSW,10.4,-,N/A,,Mostly Cloudy,200,2014-04-07 21:58:00
5:58 PM,73.0,66.9,81,29.71,10.0,SSW,8.1,-,N/A,,Clear,200,2014-04-07 22:58:00
6:58 PM,71.1,66.9,87,29.72,10.0,SSW,4.6,-,N/A,,Clear,200,2014-04-07 23:58:00
7:58 PM,70.0,66.9,90,29.75,10.0,Calm,Calm,-,N/A,,Mostly Cloudy,0,2014-04-08 00:58:00
8:18 PM,69.8,66.2,88,29.78,9.0,Variable,4.6,-,N/A,,Mostly Cloudy,0,2014-04-08 01:18:00
8:23 PM,69.8,66.2,88,29.79,10.0,Calm,Calm,-,N/A,,Mostly Cloudy,0,2014-04-08 01:23:00
8:58 PM,69.1,60.1,73,29.79,10.0,Variable,3.5,-,N/A,,Clear,0,2014-04-08 01:58:00
9:58 PM,66.0,57.9,75,29.81,10.0,North,3.5,-,N/A,,Clear,350,2014-04-08 02:58:00
10:58 PM,62.1,54.0,75,29.83,10.0,North,6.9,-,N/A,,Clear,360,2014-04-08 03:58:00
11:58 PM,59.0,48.9,69,29.85,10.0,North,5.8,-,N/A,,Clear,350,2014-04-08 04:58:00